Regional Weather Roundup
Issued by NWS

Home | Current Version | Previous Version | Text Only | Print | Product List | Glossary On
Versions: 1 2 3 4 5 6 7 8 9 10 11 12 13 14 15 16 17 18 19 20 21 22 23 24 25 26 27 28 29 30 31 32 33 34 35 36 37 38 39 40 41 42 43 44 45 46 47 48 49 50
000
ASUS43 KLSX 260507
RWRMO

WEATHER SUMMARY FOR MISSOURI
NATIONAL WEATHER SERVICE SPRINGFIELD MO
1200 AM CDT SUN OCT 26 2014

NOTE: "FAIR" INDICATES FEW OR NO CLOUDS BELOW 12,000 FEET WITH NO
       SIGNIFICANT WEATHER AND/OR OBSTRUCTIONS TO VISIBILITY.
       CURRENT SKY AND/OR WEATHER CONDITIONS ARE NOT AVAILABLE FOR
       CHILLICOTHE AND FARMINGTON.

MOZ001>031-035>038-043-044-053-054-260600-
...NORTHERN AND WESTERN MISSOURI...

CITY           SKY/WX    TMP DP  RH WIND       PRES   REMARKS
KANSAS CTY INT CLEAR     65  50  58 E8        30.00S
KANSAS C DTWN  CLEAR     64  51  62 NE3       29.99S
LEE`S SUMMIT   CLEAR     63  52  67 SE6       30.01S
ST JOSEPH      CLEAR     62  47  57 E7        30.00F
CHILLICOTHE      N/A     61  45  55 NE3       30.04F
KIRKSVILLE     CLEAR     50  43  77 NE10      30.05F

$$
MOZ066>068-077>081-088>096-101>105-260600-
...SOUTHWEST MISSOURI...

CITY           SKY/WX    TMP DP  RH WIND       PRES   REMARKS
SPRINGFIELD    CLEAR     61  59  93 S5        30.01F
JOPLIN         CLEAR     65  62  90 S7        30.00F

$$
MOZ032>034-039>042-045>050-055>058-069>072-260600-
...CENTRAL MISSOURI...

CITY           SKY/WX    TMP DP  RH WIND       PRES   REMARKS
COLUMBIA       CLEAR     60  50  69 E8        30.02F
JEFFERSON CITY CLEAR     55  53  93 CALM      30.01F
ROLLA          CLEAR     60  54  80 CALM      30.02S
SEDALIA        CLEAR     62  55  77 SE3       30.02F
WHITEMAN AFB   CLEAR     61  55  80 E5        30.00F
OSAGE BEACH    CLEAR     57  54  88 CALM      30.01F

$$
MOZ051-052-059>065-260600-
...EAST CENTRAL MISSOURI...

CITY           SKY/WX    TMP DP  RH WIND       PRES   REMARKS
ST LOUIS INTL  CLEAR     60  50  69 CALM      30.03S
SPIRIT OF STL  CLEAR     52  50  93 CALM      30.02S
ST CHARLES     CLEAR     54  50  86 W3        30.02S FOG

$$
MOZ072>076-082>087-097>100-106>115-260600-
...SOUTH CENTRAL AND SOUTHEAST MISSOURI...

CITY           SKY/WX    TMP DP  RH WIND       PRES   REMARKS
CAPE GIRARDEAU CLEAR     57  55  94 CALM      30.00F FOG
FARMINGTON     CLEAR     55  54  94 CALM      30.04S
POPLAR BLUFF   FOG       58  57  97 CALM      29.99S VSB 1/4
WEST PLAINS    CLEAR     59  56  89 CALM      30.03F

$$



USA.gov is the U.S. government's official web portal to all federal, state and local government web resources and services.